EN

Hourly Weather Laatzen

Today, 30 July, Friday

Time Temperature Precipitation Wind Pressure Humidity
00:00 +14°C° 0 mm 3 mps 751 mmHg 80%
01:00 +14°C° 0 mm 2 mps 751 mmHg 82%
02:00 +14°C° 0 mm 2 mps 751 mmHg 84%
03:00 +14°C° 0 mm 2 mps 751 mmHg 86%
04:00 +14°C° 0 mm 2 mps 751 mmHg 87%
05:00 +14°C° 0 mm 3 mps 751 mmHg 83%
06:00 +16°C° 0 mm 3 mps 751 mmHg 79%
07:00 +17°C° 0 mm 3 mps 750 mmHg 76%
08:00 +18°C° 0 mm 4 mps 750 mmHg 70%
09:00 +20°C° 0 mm 4 mps 750 mmHg 63%
10:00 +21°C° 0 mm 5 mps 750 mmHg 57%
11:00 +22°C° 0 mm 5 mps 750 mmHg 55%
12:00 +23°C° 0 mm 5 mps 750 mmHg 53%
13:00 +25°C° 0 mm 4 mps 749 mmHg 51%
14:00 +25°C° 0 mm 4 mps 749 mmHg 52%
15:00 +25°C° 0 mm 3 mps 749 mmHg 52%
16:00 +25°C° 0 mm 3 mps 748 mmHg 53%
17:00 +25°C° 0 mm 2 mps 748 mmHg 57%
18:00 +24°C° 0 mm 2 mps 748 mmHg 61%
19:00 +23°C° 0 mm 1 mps 747 mmHg 64%
20:00 +21°C° 0.4 mm 2 mps 747 mmHg 72%
21:00 +19°C° 0.4 mm 3 mps 748 mmHg 79%
22:00 +18°C° 0.4 mm 3 mps 748 mmHg 86%
23:00 +17°C° 0 mm 3 mps 748 mmHg 88%

Tomorrow, 31 July, Saturday

Time Temperature Precipitation Wind Pressure Humidity
00:00 +16°C° 0 mm 3 mps 748 mmHg 90%
01:00 +16°C° 0 mm 3 mps 748 mmHg 92%
02:00 +14°C° 0 mm 4 mps 748 mmHg 89%
03:00 +14°C° 0 mm 4 mps 747 mmHg 87%
04:00 +14°C° 0 mm 5 mps 747 mmHg 85%
05:00 +14°C° 0 mm 6 mps 747 mmHg 82%
06:00 +14°C° 0 mm 6 mps 747 mmHg 79%
07:00 +15°C° 0 mm 7 mps 747 mmHg 76%
08:00 +16°C° 0 mm 7 mps 747 mmHg 73%
09:00 +17°C° 0 mm 8 mps 747 mmHg 70%
10:00 +17°C° 0 mm 9 mps 748 mmHg 67%
11:00 +18°C° 0.1 mm 9 mps 748 mmHg 67%
12:00 +18°C° 0.1 mm 8 mps 748 mmHg 66%
13:00 +20°C° 0.1 mm 8 mps 748 mmHg 66%
14:00 +20°C° 0.3 mm 8 mps 748 mmHg 66%
15:00 +20°C° 0.3 mm 8 mps 748 mmHg 67%
16:00 +20°C° 0.3 mm 8 mps 749 mmHg 68%
17:00 +20°C° 0.2 mm 7 mps 749 mmHg 70%
18:00 +19°C° 0.2 mm 6 mps 749 mmHg 72%
19:00 +19°C° 0.2 mm 5 mps 749 mmHg 75%
20:00 +17°C° 0 mm 5 mps 749 mmHg 79%
21:00 +17°C° 0 mm 4 mps 749 mmHg 83%
22:00 +14°C° 0 mm 3 mps 749 mmHg 88%
23:00 +14°C° 0 mm 3 mps 750 mmHg 89%

Day after tomorrow, 1 August, Sunday

Time Temperature Precipitation Wind Pressure Humidity
00:00 +14°C° 0 mm 3 mps 750 mmHg 91%
01:00 +13°C° 0 mm 3 mps 750 mmHg 93%
02:00 +13°C° 0 mm 3 mps 750 mmHg 93%
03:00 +13°C° 0 mm 3 mps 749 mmHg 94%
04:00 +13°C° 0 mm 3 mps 749 mmHg 95%
05:00 +13°C° 0 mm 3 mps 749 mmHg 92%
06:00 +14°C° 0 mm 3 mps 750 mmHg 89%
07:00 +15°C° 0 mm 4 mps 750 mmHg 86%
08:00 +17°C° 0.1 mm 4 mps 750 mmHg 82%
09:00 +17°C° 0.1 mm 4 mps 750 mmHg 79%
10:00 +18°C° 0.1 mm 4 mps 750 mmHg 75%
11:00 +19°C° 0.1 mm 4 mps 750 mmHg 71%
12:00 +20°C° 0.1 mm 4 mps 750 mmHg 67%
13:00 +21°C° 0.1 mm 4 mps 750 mmHg 63%
14:00 +21°C° 0.5 mm 4 mps 750 mmHg 65%
15:00 +21°C° 0.5 mm 4 mps 750 mmHg 67%
16:00 +21°C° 0.5 mm 4 mps 750 mmHg 69%
17:00 +20°C° 0.4 mm 3 mps 750 mmHg 72%
18:00 +19°C° 0.4 mm 2 mps 749 mmHg 76%
19:00 +19°C° 0.4 mm 2 mps 749 mmHg 80%
20:00 +18°C° 0.6 mm 2 mps 750 mmHg 84%
21:00 +16°C° 0.6 mm 2 mps 750 mmHg 89%
22:00 +15°C° 0.6 mm 2 mps 750 mmHg 93%
23:00 +15°C° 0.3 mm 2 mps 750 mmHg 95%

2 August, Monday

Time Temperature Precipitation Wind Pressure Humidity
00:00 +15°C° 0.3 mm 2 mps 750 mmHg 96%
01:00 +14°C° 0.3 mm 2 mps 751 mmHg 97%
02:00 +15°C° 0 mm 2 mps 751 mmHg 96%
03:00 +15°C° 0 mm 2 mps 751 mmHg 96%
04:00 +15°C° 0 mm 2 mps 751 mmHg 95%
05:00 +15°C° 0 mm 2 mps 751 mmHg 93%
06:00 +15°C° 0 mm 2 mps 752 mmHg 91%
07:00 +15°C° 0 mm 2 mps 752 mmHg 89%
08:00 +16°C° 0 mm 3 mps 752 mmHg 82%
09:00 +17°C° 0 mm 3 mps 753 mmHg 76%
10:00 +18°C° 0 mm 4 mps 753 mmHg 69%
11:00 +18°C° 0 mm 4 mps 753 mmHg 65%
12:00 +19°C° 0 mm 4 mps 753 mmHg 62%
13:00 +20°C° 0 mm 4 mps 753 mmHg 58%
14:00 +20°C° 0 mm 4 mps 753 mmHg 56%
15:00 +20°C° 0 mm 4 mps 753 mmHg 54%
16:00 +21°C° 0 mm 4 mps 753 mmHg 52%
17:00 +20°C° 0 mm 3 mps 753 mmHg 58%
18:00 +19°C° 0 mm 3 mps 753 mmHg 63%
19:00 +18°C° 0 mm 2 mps 753 mmHg 69%
20:00 +18°C° 0 mm 1 mps 753 mmHg 72%
21:00 +16°C° 0 mm 1 mps 754 mmHg 76%
22:00 +14°C° 0 mm 0 mps 754 mmHg 80%
23:00 +14°C° 0 mm 0 mps 754 mmHg 80%

3 August, Tuesday

Time Temperature Precipitation Wind Pressure Humidity
00:00 +14°C° 0 mm 0 mps 754 mmHg 81%
01:00 +13°C° 0 mm 0 mps 754 mmHg 81%
02:00 +13°C° 0 mm 0 mps 754 mmHg 83%
03:00 +13°C° 0 mm 0 mps 754 mmHg 84%
04:00 +13°C° 0 mm 1 mps 753 mmHg 85%
05:00 +14°C° 0 mm 1 mps 753 mmHg 82%
06:00 +15°C° 0 mm 1 mps 753 mmHg 80%
07:00 +16°C° 0 mm 1 mps 753 mmHg 77%
08:00 +18°C° 0.1 mm 1 mps 753 mmHg 76%
09:00 +18°C° 0.1 mm 1 mps 753 mmHg 75%
10:00 +19°C° 0.1 mm 1 mps 753 mmHg 73%
11:00 +19°C° 0.5 mm 1 mps 753 mmHg 75%
12:00 +19°C° 0.5 mm 1 mps 753 mmHg 77%
13:00 +18°C° 0.5 mm 2 mps 752 mmHg 79%
14:00 +17°C° 1.5 mm 2 mps 752 mmHg 84%
15:00 +17°C° 1.5 mm 2 mps 752 mmHg 89%
16:00 +16°C° 1.5 mm 3 mps 752 mmHg 93%
17:00 +16°C° 0.2 mm 2 mps 752 mmHg 92%
18:00 +16°C° 0.2 mm 2 mps 752 mmHg 91%
19:00 +16°C° 0.2 mm 2 mps 753 mmHg 90%
20:00 +15°C° 0 mm 2 mps 753 mmHg 92%
21:00 +15°C° 0 mm 2 mps 753 mmHg 93%
22:00 +14°C° 0 mm 1 mps 753 mmHg 95%
23:00 +14°C° 0 mm 1 mps 753 mmHg 94%

4 August, Wednesday

Time Temperature Precipitation Wind Pressure Humidity
00:00 +14°C° 0 mm 1 mps 753 mmHg 94%
01:00 +14°C° 0 mm 1 mps 753 mmHg 94%
02:00 +14°C° 0 mm 1 mps 753 mmHg 94%
03:00 +14°C° 0 mm 1 mps 753 mmHg 94%
04:00 +14°C° 0 mm 1 mps 753 mmHg 94%
05:00 +14°C° 0 mm 1 mps 753 mmHg 91%
06:00 +14°C° 0 mm 1 mps 753 mmHg 89%
07:00 +15°C° 0 mm 1 mps 753 mmHg 87%
08:00 +16°C° 0 mm 1 mps 753 mmHg 81%
09:00 +18°C° 0 mm 1 mps 753 mmHg 75%
10:00 +20°C° 0 mm 1 mps 753 mmHg 69%
11:00 +20°C° 0 mm 1 mps 752 mmHg 65%
12:00 +21°C° 0 mm 1 mps 752 mmHg 62%
13:00 +21°C° 0 mm 1 mps 752 mmHg 59%
14:00 +22°C° 0.1 mm 1 mps 752 mmHg 57%
15:00 +22°C° 0.1 mm 1 mps 751 mmHg 56%
16:00 +23°C° 0.1 mm 2 mps 751 mmHg 54%
17:00 +21°C° 0.1 mm 2 mps 751 mmHg 60%
18:00 +20°C° 0.1 mm 2 mps 751 mmHg 66%
19:00 +19°C° 0.1 mm 2 mps 751 mmHg 72%
20:00 +18°C° 0 mm 2 mps 751 mmHg 75%
21:00 +17°C° 0 mm 2 mps 750 mmHg 77%
22:00 +17°C° 0 mm 2 mps 750 mmHg 80%
23:00 +17°C° 0 mm 2 mps 750 mmHg 80%
Show more